DW3724 Weather Reports


Display with metric or nautical units.
time (UTC)temp
F
wind
direction
speed
MPH
gust
MPH
rain 1hr
in
rain 24hr
in
rain mn
in
humidity
%
barometer
mb
20190324101707 59 135 0.0 2.0 0.00 0.00 0.00 42 1024.2
20190324101208 58 293 0.0 3.0 0.00 0.00 0.00 44 1024.2
20190324100709 58 248 1.0 3.0 0.00 0.00 0.00 45 1024.6
20190324100207 58 158 1.0 3.0 0.00 0.00 0.00 45 1024.6
20190324095707 57 203 2.0 3.0 0.00 0.00 0.00 45 1024.6
20190324095208 57 225 2.0 3.0 0.00 0.00 0.00 45 1024.6
20190324094706 57 248 1.0 2.0 0.00 0.00 0.00 45 1024.7
20190324094209 56 203 1.0 3.0 0.00 0.00 0.00 46 1024.7
20190324093706 56 248 1.0 3.0 0.00 0.00 0.00 47 1024.7
20190324093208 56 293 2.0 3.0 0.00 0.00 0.00 49 1024.9
20190324092708 56 248 1.0 3.0 0.00 0.00 0.00 50 1024.9
20190324092209 55 270 1.0 2.0 0.00 0.00 0.00 51 1024.9
20190324091710 55 203 1.0 2.0 0.00 0.00 0.00 51 1024.9
20190324091210 55 225 1.0 2.0 0.00 0.00 0.00 52 1024.9
20190324090706 54 225 1.0 2.0 0.00 0.00 0.00 52 1025.1
20190324090212 54 293 0.0 3.0 0.00 0.00 0.00 53 1025.1
20190324085709 53 315 1.0 3.0 0.00 0.00 0.00 56 1025.1
20190324085206 53 248 1.0 2.0 0.00 0.00 0.00 58 1025.1
20190324084708 52 68 0.0 2.0 0.00 0.00 0.00 58 1025.4
20190324084207 51 68 1.0 2.0 0.00 0.00 0.00 61 1025.4
20190324083710 51 90 0.0 1.0 0.00 0.00 0.00 62 1025.4
20190324083209 50 293 0.0 2.0 0.00 0.00 0.00 62 1025.7
20190324082706 49 270 1.0 2.0 0.00 0.00 0.00 64 1025.7
20190324082207 49 90 1.0 2.0 0.00 0.00 0.00 65 1025.7
20190324081708 48 68 1.0 2.0 0.00 0.00 0.00 66 1025.7
20190324081208 47 68 0.0 2.0 0.00 0.00 0.00 67 1025.7
20190324080707 47 90 1.0 2.0 0.00 0.00 0.00 68 1026.4
20190324080208 46 135 1.0 2.0 0.00 0.00 0.00 69 1026.4
20190324075707 46 90 0.0 2.0 0.00 0.00 0.00 71 1026.4
20190324075209 45 90 0.0 0.0 0.00 0.00 0.00 71 1026.4
20190324074706 44 248 0.0 0.0 0.00 0.00 0.00 72 1026.4
20190324074212 44 68 0.0 0.0 0.00 0.00 0.00 73 1026.4
20190324073709 43 90 0.0 0.0 0.00 0.00 0.00 74 1026.4
20190324073207 43 90 0.0 0.0 0.00 0.00 0.00 75 1026.4
20190324072707 42 248 0.0 0.0 0.00 0.00 0.00 76 1026.4
20190324072209 42 248 0.0 0.0 0.00 0.00 0.00 76 1026.4
20190324071706 41 248 0.0 0.0 0.00 0.00 0.00 77 1026.4
20190324071207 40 225 0.0 0.0 0.00 0.00 0.00 77 1026.4
20190324070708 40 203 0.0 2.0 0.00 0.00 0.00 77 1026.4
20190324070209 39 248 0.0 2.0 0.00 0.00 0.00 77 1026.4
20190324065708 38 68 0.0 2.0 0.00 0.00 0.00 77 1026.4
20190324065209 38 113 0.0 0.0 0.00 0.00 0.00 76 1026.2
20190324064710 38 90 0.0 0.0 0.00 0.00 0.00 76 1026.2
20190324064207 37 90 0.0 0.0 0.00 0.00 0.00 75 1026.2
20190324063707 37 90 0.0 0.0 0.00 0.00 0.00 75 1026.2
20190324063208 38 68 0.0 0.0 0.00 0.00 0.00 75 1026.2
20190324062709 37 113 0.0 0.0 0.00 0.00 0.00 74 1026.2
20190324062214 38 68 0.0 0.0 0.00 0.00 0.00 74 1026.2
20190324061707 38 45 0.0 0.0 0.00 0.00 0.00 74 1026.2
20190324061209 38 45 0.0 0.0 0.00 0.00 0.00 73 1026.2
20190324060709 38 45 0.0 0.0 0.00 0.00 0.00 73 1026.1
20190324060206 38 45 0.0 0.0 0.00 0.00 0.00 73 1026.1
20190324055707 38 68 0.0 0.0 0.00 0.00 0.00 73 1026.1
20190324055212 38 68 0.0 0.0 0.00 0.00 0.00 73 1026.0
20190324054712 38 45 0.0 0.0 0.00 0.00 0.00 73 1026.0
20190324054206 38 248 0.0 0.0 0.00 0.00 0.00 73 1026.0
20190324053706 38 270 0.0 0.0 0.00 0.00 0.00 72 1026.0
20190324053207 38 293 0.0 0.0 0.00 0.00 0.00 72 1026.0
20190324052706 38 293 0.0 2.0 0.00 0.00 0.00 72 1025.7
20190324052208 38 293 0.0 2.0 0.00 0.00 0.00 72 1025.7
20190324051706 38 293 0.0 2.0 0.00 0.00 0.00 72 1025.7
20190324051208 39 135 0.0 2.0 0.00 0.00 0.00 72 1025.7
20190324050707 39 90 0.0 0.0 0.00 0.00 0.00 72 1025.7
20190324050206 39 90 0.0 2.0 0.00 0.00 0.00 72 1025.7
20190324045706 39 248 0.0 2.0 0.00 0.00 0.00 72 1025.7
20190324045206 39 68 1.0 2.0 0.00 0.00 0.00 72 1025.8
20190324044705 38 90 1.0 2.0 0.00 0.00 0.00 72 1025.8
20190324044208 38 90 1.0 0.0 0.00 0.00 0.00 72 1025.8
20190324043707 38 23 0.0 0.0 0.00 0.00 0.00 71 1025.8
20190324043213 39 90 0.0 0.0 0.00 0.00 0.00 71 1025.8
20190324042706 39 90 0.0 0.0 0.00 0.00 0.00 71 1025.8
20190324042207 39 90 0.0 0.0 0.00 0.00 0.00 70 1025.8
20190324041708 39 90 0.0 0.0 0.00 0.00 0.00 70 1025.8
20190324041207 39 270 0.0 0.0 0.00 0.00 0.00 70 1025.8
20190324040708 40 248 0.0 0.0 0.00 0.00 0.00 70 1025.8
20190324040207 40 270 0.0 0.0 0.00 0.00 0.00 70 1025.8
20190324035706 40 270 0.0 0.0 0.00 0.00 0.00 69 1025.8
20190324035207 40 113 0.0 0.0 0.00 0.00 0.00 69 1025.7
20190324034707 40 90 0.0 0.0 0.00 0.00 0.00 69 1025.7
20190324034206 40 90 0.0 0.0 0.00 0.00 0.00 69 1025.7
20190324033706 40 90 0.0 0.0 0.00 0.00 0.00 69 1025.7
20190324033207 40 90 0.0 0.0 0.00 0.00 0.00 69 1025.7
20190324032706 40 293 0.0 0.0 0.00 0.00 0.00 69 1025.5
20190324032206 40 90 0.0 0.0 0.00 0.00 0.00 68 1025.5
20190324031706 41 68 0.0 0.0 0.00 0.00 0.00 68 1025.5
20190324031206 41 68 0.0 0.0 0.00 0.00 0.00 68 1025.7
20190324030707 41 90 0.0 0.0 0.00 0.00 0.00 68 1025.7
20190324030207 41 68 0.0 0.0 0.00 0.00 0.00 68 1025.7
20190324025707 41 90 0.0 0.0 0.00 0.00 0.00 68 1025.7
20190324025209 41 248 0.0 2.0 0.00 0.00 0.00 68 1025.7
20190324024707 41 135 0.0 2.0 0.00 0.00 0.00 68 1025.5
20190324024212 41 135 0.0 2.0 0.00 0.00 0.00 68 1025.5
20190324023706 41 68 0.0 2.0 0.00 0.00 0.00 68 1025.5
20190324023208 41 90 0.0 1.0 0.00 0.00 0.00 68 1025.5
20190324022707 41 68 0.0 0.0 0.00 0.00 0.00 67 1025.5
20190324022209 41 135 0.0 0.0 0.00 0.00 0.00 67 1025.5
20190324021707 41 68 0.0 0.0 0.00 0.00 0.00 67 1025.5
20190324021207 41 68 0.0 0.0 0.00 0.00 0.00 66 1025.3
20190324020707 41 68 0.0 0.0 0.00 0.00 0.00 66 1025.3
20190324020206 41 248 0.0 0.0 0.00 0.00 0.00 66 1025.3
20190324015710 41 248 0.0 0.0 0.00 0.00 0.00 66 1025.3
20190324015212 42 248 0.0 0.0 0.00 0.00 0.00 66 1025.3
20190324014707 42 90 0.0 0.0 0.00 0.00 0.00 66 1025.6
20190324014207 42 90 0.0 0.0 0.00 0.00 0.00 66 1025.6
20190324013708 42 90 0.0 0.0 0.00 0.00 0.00 66 1025.6
20190324013207 42 90 0.0 2.0 0.00 0.00 0.00 65 1025.6
20190324012708 42 68 0.0 2.0 0.00 0.00 0.00 65 1026.0
20190324012207 42 90 0.0 2.0 0.00 0.00 0.00 65 1026.0
20190324011706 42 90 0.0 0.0 0.00 0.00 0.00 65 1026.0
20190324011210 43 90 0.0 0.0 0.00 0.00 0.00 64 1026.0
20190324010707 43 90 0.0 2.0 0.00 0.00 0.00 64 1026.0
20190324010206 43 90 0.0 2.0 0.00 0.00 0.00 64 1026.0
20190324005706 43 113 0.0 2.0 0.00 0.00 0.00 63 1026.0
20190324005206 43 90 0.0 2.0 0.00 0.00 0.00 63 1026.0
20190324004706 43 90 0.0 2.0 0.00 0.00 0.00 63 1026.2
20190324004207 43 90 0.0 1.0 0.00 0.00 0.00 63 1026.2
20190324003708 44 135 0.0 0.0 0.00 0.00 0.00 62 1026.2
20190324003206 44 293 0.0 0.0 0.00 0.00 0.00 61 1026.2
20190324002706 44 135 0.0 0.0 0.00 0.00 0.00 61 1026.6
20190324002206 44 113 0.0 0.0 0.00 0.00 0.00 61 1026.6
20190324001715 44 270 0.0 0.0 0.00 0.00 0.00 61 1026.6
20190324001207 45 270 0.0 0.0 0.00 0.00 0.00 61 1026.1
20190324000710 45 248 0.0 0.0 0.00 0.00 0.00 60 1026.1
20190324000207 45 248 0.0 0.0 0.00 0.00 0.00 60 1026.1
20190323235706 46 90 0.0 0.0 0.00 0.00 0.00 59 1026.1
20190323235208 46 90 0.0 0.0 0.00 0.00 0.00 59 1026.1
20190323234708 46 293 0.0 0.0 0.00 0.00 0.00 58 1026.6
20190323234208 46 270 0.0 0.0 0.00 0.00 0.00 58 1026.6
20190323233707 46 270 0.0 0.0 0.00 0.00 0.00 58 1026.6
20190323233213 46 270 0.0 0.0 0.00 0.00 0.00 57 1026.6
20190323232706 47 293 0.0 0.0 0.00 0.00 0.00 57 1026.6
20190323232206 47 90 0.0 2.0 0.00 0.00 0.00 56 1026.6
20190323231708 48 293 0.0 2.0 0.00 0.00 0.00 56 1026.6
20190323231206 48 0 0.0 2.0 0.00 0.00 0.00 55 1026.7
20190323230726 48 68 0.0 3.0 0.00 0.00 0.00 55 1026.7
20190323230207 48 68 1.0 3.0 0.00 0.00 0.00 55 1026.7
20190323225706 49 135 1.0 4.0 0.00 0.00 0.00 55 1026.7
20190323225207 49 90 1.0 4.0 0.00 0.00 0.00 54 1026.7
20190323224713 49 68 1.0 8.0 0.00 0.00 0.00 54 1027.0
20190323224207 49 135 1.0 8.0 0.00 0.00 0.00 54 1027.0
20190323223712 49 135 3.0 8.0 0.00 0.00 0.00 54 1027.0
20190323223206 48 68 2.0 4.0 0.00 0.00 0.00 55 1026.9
20190323222707 49 113 1.0 1.0 0.00 0.00 0.00 55 1026.9
20190323222208 49 158 0.0 5.0 0.00 0.00 0.00 54 1026.9
20190323221706 49 135 1.0 5.0 0.00 0.00 0.00 54 1026.9
20190323221207 49 135 2.0 5.0 0.00 0.00 0.00 54 1026.9
20190323220707 49 90 3.0 5.0 0.00 0.00 0.00 54 1027.0
20190323220207 49 90 3.0 5.0 0.00 0.00 0.00 54 1027.0
20190323215706 50 90 3.0 5.0 0.00 0.00 0.00 53 1027.0
20190323215209 50 90 3.0 4.0 0.00 0.00 0.00 53 1027.0
20190323214707 50 68 3.0 5.0 0.00 0.00 0.00 53 1027.2
20190323214208 51 113 3.0 5.0 0.00 0.00 0.00 53 1027.2
20190323213707 51 68 3.0 6.0 0.00 0.00 0.00 52 1027.2
20190323213208 51 68 3.0 6.0 0.00 0.00 0.00 52 1027.3
20190323212715 51 135 4.0 7.0 0.00 0.00 0.00 52 1027.3
20190323212206 51 90 5.0 7.0 0.00 0.00 0.00 52 1027.3
20190323211707 51 68 4.0 9.0 0.00 0.00 0.00 52 1027.3
20190323211207 51 90 4.0 9.0 0.00 0.00 0.00 52 1027.3
20190323210706 51 90 5.0 9.0 0.00 0.00 0.00 52 1027.4
20190323210210 51 68 5.0 7.0 0.00 0.00 0.00 52 1027.4
20190323205708 51 90 5.0 7.0 0.00 0.00 0.00 51 1027.4
20190323205207 51 225 5.0 7.0 0.00 0.00 0.00 51 1027.4
20190323204706 51 90 6.0 7.0 0.00 0.00 0.00 51 1027.5
20190323204208 51 90 5.0 7.0 0.00 0.00 0.00 51 1027.5
20190323203706 52 113 4.0 7.0 0.00 0.00 0.00 50 1027.5
20190323203209 52 113 5.0 8.0 0.00 0.00 0.00 50 1027.6
20190323202706 52 113 5.0 8.0 0.00 0.00 0.00 51 1027.6
20190323202210 52 68 6.0 8.0 0.00 0.00 0.00 50 1027.6
20190323201708 52 68 4.0 7.0 0.00 0.00 0.00 50 1027.6
20190323201207 52 68 4.0 8.0 0.00 0.00 0.00 49 1027.6
20190323200715 52 68 5.0 8.0 0.00 0.00 0.00 49 1027.4
20190323200207 53 68 5.0 8.0 0.00 0.00 0.00 49 1027.4
20190323195707 53 90 5.0 7.0 0.00 0.00 0.00 49 1027.4
20190323195217 53 68 5.0 7.0 0.00 0.00 0.00 49 1027.4
20190323194707 53 90 5.0 7.0 0.00 0.00 0.00 49 1027.2
20190323194207 53 68 5.0 8.0 0.00 0.00 0.00 49 1027.2
20190323193708 53 90 5.0 8.0 0.00 0.00 0.00 49 1027.2
20190323193206 53 113 5.0 8.0 0.00 0.00 0.00 49 1027.3
20190323192706 54 68 5.0 9.0 0.00 0.00 0.00 48 1027.3
20190323192206 54 90 6.0 9.0 0.00 0.00 0.00 48 1027.3
20190323191706 54 68 6.0 9.0 0.00 0.00 0.00 47 1027.3
20190323191214 54 90 5.0 9.0 0.00 0.00 0.00 47 1027.3
20190323190707 55 68 6.0 9.0 0.00 0.00 0.00 47 1027.3
20190323190207 55 68 6.0 9.0 0.00 0.00 0.00 47 1027.3
20190323185706 55 90 5.0 7.0 0.00 0.00 0.00 46 1027.3
20190323185206 55 68 5.0 7.0 0.00 0.00 0.00 46 1026.9
20190323184710 55 90 5.0 7.0 0.00 0.00 0.00 46 1026.9
20190323184207 55 90 4.0 8.0 0.00 0.00 0.00 46 1026.9
20190323183706 55 135 4.0 8.0 0.00 0.00 0.00 46 1026.9
20190323183207 55 113 5.0 8.0 0.00 0.00 0.00 46 1026.9
20190323182712 56 90 4.0 6.0 0.00 0.00 0.00 46 1026.9
20190323182213 56 113 4.0 5.0 0.00 0.00 0.00 45 1026.9
20190323181715 56 90 3.0 4.0 0.00 0.00 0.00 44 1026.9
20190323181208 56 68 2.0 6.0 0.00 0.00 0.00 44 1026.9
20190323180710 57 90 2.0 6.0 0.00 0.00 0.00 43 1026.7
20190323180212 57 68 4.0 6.0 0.00 0.00 0.00 43 1026.7
20190323175709 57 293 4.0 6.0 0.00 0.00 0.00 42 1026.7
20190323175207 58 90 4.0 8.0 0.00 0.00 0.00 42 1026.5
20190323174708 58 90 5.0 8.0 0.00 0.00 0.00 42 1026.5
20190323174206 58 68 5.0 8.0 0.00 0.00 0.00 41 1026.5
20190323173706 58 113 4.0 7.0 0.00 0.00 0.00 41 1026.5
20190323173208 59 68 4.0 7.0 0.00 0.00 0.00 40 1026.5
20190323172706 59 68 4.0 6.0 0.00 0.00 0.00 40 1026.4
20190323172207 59 68 4.0 6.0 0.00 0.00 0.00 40 1026.4
20190323171714 60 90 4.0 6.0 0.00 0.00 0.00 39 1026.4
20190323171214 60 68 4.0 6.0 0.00 0.00 0.00 39 1026.4
20190323170706 61 90 4.0 7.0 0.00 0.00 0.00 38 1026.2
20190323170212 61 90 4.0 7.0 0.00 0.00 0.00 38 1026.2
20190323165707 61 135 4.0 7.0 0.00 0.00 0.00 37 1026.2
20190323165206 62 90 3.0 4.0 0.00 0.00 0.00 37 1026.0
20190323164708 62 113 2.0 4.0 0.00 0.00 0.00 37 1026.0
20190323164207 62 68 2.0 4.0 0.00 0.00 0.00 36 1026.0
20190323163709 63 113 2.0 7.0 0.00 0.00 0.00 36 1026.0
20190323163208 63 90 3.0 7.0 0.00 0.00 0.00 35 1026.0
20190323162707 63 90 3.0 7.0 0.00 0.00 0.00 35 1025.8
20190323162208 63 90 3.0 5.0 0.00 0.00 0.00 35 1025.8
20190323161707 64 90 3.0 5.0 0.00 0.00 0.00 35 1025.8
20190323161207 64 90 2.0 3.0 0.00 0.00 0.00 34 1025.8
20190323160715 64 90 0.0 3.0 0.00 0.00 0.00 33 1025.7
20190323160207 64 270 1.0 5.0 0.00 0.00 0.00 33 1025.7
20190323155709 64 248 2.0 7.0 0.00 0.00 0.00 32 1025.7
20190323155208 64 315 3.0 7.0 0.00 0.00 0.00 31 1025.6
20190323154710 65 248 3.0 7.0 0.00 0.00 0.00 31 1025.6
20190323154208 65 270 3.0 7.0 0.00 0.00 0.00 31 1025.6
20190323153706 65 293 3.0 5.0 0.00 0.00 0.00 30 1025.6
20190323153207 66 270 3.0 5.0 0.00 0.00 0.00 30 1025.6
20190323152707 67 270 3.0 7.0 0.00 0.00 0.00 29 1025.6
20190323152208 68 270 4.0 7.0 0.00 0.00 0.00 30 1025.6
20190323151708 67 293 5.0 8.0 0.00 0.00 0.00 30 1025.6
20190323151210 67 248 5.0 8.0 0.00 0.00 0.00 28 1025.6
20190323150706 67 270 5.0 9.0 0.00 0.00 0.00 30 1025.7
20190323150210 67 293 6.0 9.0 0.00 0.00 0.00 28 1025.7
20190323145705 68 293 6.0 9.0 0.00 0.00 0.00 28 1025.7
20190323145211 68 293 6.0 10.0 0.00 0.00 0.00 28 1025.8
20190323144706 68 248 5.0 10.0 0.00 0.00 0.00 29 1025.8
20190323144208 69 293 5.0 9.0 0.00 0.00 0.00 27 1025.8
20190323143709 69 248 5.0 9.0 0.00 0.00 0.00 27 1025.8
20190323143206 69 248 5.0 7.0 0.00 0.00 0.00 27 1025.8
20190323142709 69 248 4.0 7.0 0.00 0.00 0.00 27 1026.0
20190323142213 69 293 4.0 7.0 0.00 0.00 0.00 27 1026.0
20190323141711 69 293 4.0 7.0 0.00 0.00 0.00 27 1026.0
20190323141206 69 293 4.0 7.0 0.00 0.00 0.00 26 1026.2
20190323140708 69 248 4.0 7.0 0.00 0.00 0.00 27 1026.2
20190323140207 70 338 4.0 7.0 0.00 0.00 0.00 26 1026.2
20190323135708 70 225 4.0 7.0 0.00 0.00 0.00 27 1026.2
20190323135212 70 293 4.0 5.0 0.00 0.00 0.00 27 1026.2
20190323134706 70 225 4.0 5.0 0.00 0.00 0.00 27 1026.5
20190323134211 70 248 4.0 4.0 0.00 0.00 0.00 27 1026.5
20190323133707 70 293 3.0 4.0 0.00 0.00 0.00 27 1026.5
20190323133207 70 248 2.0 6.0 0.00 0.00 0.00 29 1026.5
20190323132708 70 293 2.0 6.0 0.00 0.00 0.00 27 1026.7
20190323132206 69 315 2.0 6.0 0.00 0.00 0.00 27 1026.7
20190323131710 69 270 2.0 5.0 0.00 0.00 0.00 27 1026.7
20190323131210 69 270 2.0 5.0 0.00 0.00 0.00 27 1026.7
20190323130707 69 225 2.0 5.0 0.00 0.00 0.00 26 1026.7
20190323130206 69 293 2.0 5.0 0.00 0.00 0.00 27 1026.7
20190323125707 69 270 2.0 5.0 0.00 0.00 0.00 27 1026.7
20190323125210 69 248 2.0 5.0 0.00 0.00 0.00 28 1026.7
20190323124706 69 248 3.0 6.0 0.00 0.00 0.00 28 1027.1
20190323124207 69 158 3.0 6.0 0.00 0.00 0.00 28 1027.1
20190323123706 69 293 2.0 6.0 0.00 0.00 0.00 29 1027.1
20190323123207 68 203 2.0 4.0 0.00 0.00 0.00 30 1027.1
20190323122711 67 293 3.0 5.0 0.00 0.00 0.00 28 1027.1
20190323122207 67 203 3.0 5.0 0.00 0.00 0.00 28 1027.1
20190323121706 68 248 3.0 5.0 0.00 0.00 0.00 30 1027.1
20190323121208 67 248 3.0 5.0 0.00 0.00 0.00 31 1026.9
20190323120708 67 248 3.0 5.0 0.00 0.00 0.00 31 1026.9
20190323120206 67 270 3.0 3.0 0.00 0.00 0.00 31 1026.9
20190323115706 67 270 1.0 3.0 0.00 0.00 0.00 32 1026.9
20190323115206 66 293 1.0 3.0 0.00 0.00 0.00 32 1026.9
20190323114706 66 225 1.0 2.0 0.00 0.00 0.00 33 1027.4
20190323114206 66 68 1.0 2.0 0.00 0.00 0.00 33 1027.4
20190323113710 65 248 1.0 2.0 0.00 0.00 0.00 34 1027.4
20190323113207 65 248 1.0 2.0 0.00 0.00 0.00 34 1027.4
20190323112708 64 270 1.0 2.0 0.00 0.00 0.00 34 1027.5
20190323112209 63 68 1.0 3.0 0.00 0.00 0.00 34 1027.5
20190323111706 63 248 1.0 3.0 0.00 0.00 0.00 34 1027.5
20190323111207 62 225 1.0 3.0 0.00 0.00 0.00 35 1027.6
20190323110706 62 180 1.0 3.0 0.00 0.00 0.00 35 1027.6
20190323110208 62 248 1.0 3.0 0.00 0.00 0.00 34 1027.6
20190323105707 62 225 1.0 3.0 0.00 0.00 0.00 35 1027.6
20190323105209 61 248 1.0 3.0 0.00 0.00 0.00 35 1027.6
20190323104706 61 248 1.0 3.0 0.00 0.00 0.00 36 1028.4
20190323104209 60 270 1.0 3.0 0.00 0.00 0.00 37 1028.4
20190323103708 60 270 1.0 2.0 0.00 0.00 0.00 37 1028.4
20190323103206 59 248 1.0 2.0 0.00 0.00 0.00 38 1028.7
20190323102708 59 270 1.0 3.0 0.00 0.00 0.00 39 1028.7
20190323102206 58 225 1.0 3.0 0.00 0.00 0.00 41 1028.7